マクノート彗星

C/2007 M1 ( McNaught )

English version
Home page
Total 6,336 html files since Dec. 4, 1995
Updated on June 30, 2008

---------------------------------------------------------------------

・ プロフィール

発見日 2007年6月16日
発見光度 18.8等
発見者 R. H. McNaught (Siding Spring)

・ 軌道要素

Epoch 2008 Aug. 2.0 TT = JDT 2454680.5
T 2008 Aug. 11.35475 TT                                 MPC
q   7.4748274            (2000.0)            P               Q
z  +0.0006185      Peri.   52.60891     +0.17633925     -0.91849430
 +/-0.0000079      Node   326.80734     -0.97471062     -0.11279189
e   0.9953767      Incl.  139.72060     +0.13727229     +0.37900688

・ 光度変化

        m1 = 5.5 + 5 logΔ + 10.0 log r

---------------------------------------------------------------------

軌道要素はM.P.E.C. 2008-M43に掲載されたものです。
光度グラフはComet for Windowsで作成したものです。

---------------------------------------------------------------------

Copyright(C) 1995-2008 Seiichi Yoshida (comet@aerith.net). All rights reserved.